Time,TemperatureF,DewpointF,PressureIn,WindDirection,WindDirectionDegrees,WindSpeedMPH,WindSpeedGustMPH,Humidity,HourlyPrecipIn,Conditions,Clouds,dailyrainin,SoftwareType,DateUTC
2013-07-14 00:00:00,77.1,56.4,29.53,North,-999,0.0,0.0,49,0.00,,,0.00,LWC V1.12 B30,2013-07-14 06:00:00,
2013-07-14 00:05:00,77.3,56.1,29.53,North,-999,0.0,0.0,48,0.00,,,0.00,LWC V1.12 B30,2013-07-14 06:05:00,
2013-07-14 00:10:00,77.4,56.2,29.53,North,-999,0.0,0.0,48,0.00,,,0.00,LWC V1.12 B30,2013-07-14 06:10:00,
2013-07-14 00:15:00,77.5,55.1,29.53,North,-999,0.0,0.0,46,0.00,,,0.00,LWC V1.12 B30,2013-07-14 06:15:00,
2013-07-14 00:20:00,77.5,55.7,29.53,North,-999,0.0,0.0,47,0.00,,,0.00,LWC V1.12 B30,2013-07-14 06:20:00,
2013-07-14 00:25:00,77.5,55.7,29.53,North,-999,0.0,0.0,47,0.00,,,0.00,LWC V1.12 B30,2013-07-14 06:25:00,
2013-07-14 00:30:00,77.6,55.8,29.53,North,-999,0.0,0.0,47,0.00,,,0.00,LWC V1.12 B30,2013-07-14 06:30:00,
2013-07-14 00:35:00,77.7,55.2,29.53,North,-999,0.0,0.0,46,0.00,,,0.00,LWC V1.12 B30,2013-07-14 06:35:00,
2013-07-14 00:40:00,77.7,56.4,29.53,North,-999,0.0,0.0,48,0.00,,,0.00,LWC V1.12 B30,2013-07-14 06:40:00,
2013-07-14 00:45:00,77.7,57.6,29.53,North,-999,0.0,0.0,50,0.00,,,0.00,LWC V1.12 B30,2013-07-14 06:45:00,
2013-07-14 00:50:00,77.6,58.0,29.53,North,-999,0.0,0.0,51,0.00,,,0.00,LWC V1.12 B30,2013-07-14 06:50:00,
2013-07-14 00:55:00,77.5,57.9,29.53,North,-999,0.0,0.0,51,0.00,,,0.00,LWC V1.12 B30,2013-07-14 06:55:00,
2013-07-14 01:00:00,77.4,57.8,29.53,North,-999,0.0,0.0,51,0.00,,,0.00,LWC V1.12 B30,2013-07-14 07:00:00,
2013-07-14 01:05:00,77.5,57.9,29.53,North,-999,0.0,0.0,51,0.00,,,0.00,LWC V1.12 B30,2013-07-14 07:05:00,
2013-07-14 01:10:00,77.4,57.3,29.53,North,-999,0.0,0.0,50,0.00,,,0.00,LWC V1.12 B30,2013-07-14 07:10:00,
2013-07-14 01:15:00,77.4,56.7,29.53,North,-999,0.0,0.0,49,0.00,,,0.00,LWC V1.12 B30,2013-07-14 07:15:00,
2013-07-14 01:20:00,77.3,56.6,29.53,North,-999,0.0,0.0,49,0.00,,,0.00,LWC V1.12 B30,2013-07-14 07:20:00,
2013-07-14 01:25:00,77.3,57.2,29.53,North,-999,0.0,0.0,50,0.00,,,0.00,LWC V1.12 B30,2013-07-14 07:25:00,
2013-07-14 01:30:00,77.3,57.2,29.53,North,-999,0.0,0.0,50,0.00,,,0.00,LWC V1.12 B30,2013-07-14 07:30:00,
2013-07-14 01:35:00,77.3,57.2,29.53,North,-999,0.0,0.0,50,0.00,,,0.00,LWC V1.12 B30,2013-07-14 07:35:00,
2013-07-14 01:40:00,77.3,57.2,29.53,North,-999,0.0,0.0,50,0.00,,,0.00,LWC V1.12 B30,2013-07-14 07:40:00,
2013-07-14 01:45:00,77.2,57.6,29.53,North,-999,0.0,0.0,51,0.00,,,0.00,LWC V1.12 B30,2013-07-14 07:45:00,
2013-07-14 01:50:00,77.2,57.6,29.53,North,-999,0.0,0.0,51,0.00,,,0.00,LWC V1.12 B30,2013-07-14 07:50:00,
2013-07-14 01:55:00,77.1,58.1,29.53,North,-999,0.0,0.0,52,0.00,,,0.00,LWC V1.12 B30,2013-07-14 07:55:00,
2013-07-14 02:00:00,77.1,58.6,29.53,North,-999,0.0,0.0,53,0.00,,,0.00,LWC V1.12 B30,2013-07-14 08:00:00,
2013-07-14 02:05:00,77.0,58.5,29.53,North,-999,0.0,0.0,53,0.00,,,0.00,LWC V1.12 B30,2013-07-14 08:05:00,
2013-07-14 02:10:00,76.9,58.4,29.53,North,-999,0.0,0.0,53,0.00,,,0.00,LWC V1.12 B30,2013-07-14 08:10:00,
2013-07-14 02:15:00,76.8,58.9,29.53,North,-999,0.0,0.0,54,0.00,,,0.00,LWC V1.12 B30,2013-07-14 08:15:00,
2013-07-14 02:20:00,76.7,58.8,29.53,North,-999,0.0,0.0,54,0.00,,,0.00,LWC V1.12 B30,2013-07-14 08:20:00,
2013-07-14 02:25:00,76.6,58.7,29.53,North,-999,0.0,0.0,54,0.00,,,0.00,LWC V1.12 B30,2013-07-14 08:25:00,
2013-07-14 02:30:00,76.5,58.6,29.53,North,-999,0.0,0.0,54,0.00,,,0.00,LWC V1.12 B30,2013-07-14 08:30:00,
2013-07-14 02:35:00,76.4,58.5,29.53,North,-999,0.0,0.0,54,0.00,,,0.00,LWC V1.12 B30,2013-07-14 08:35:00,
2013-07-14 02:40:00,76.3,58.4,29.53,North,-999,0.0,0.0,54,0.00,,,0.00,LWC V1.12 B30,2013-07-14 08:40:00,
2013-07-14 02:45:00,76.3,58.4,29.53,North,-999,0.0,0.0,54,0.00,,,0.00,LWC V1.12 B30,2013-07-14 08:45:00,
2013-07-14 02:50:00,76.2,58.8,29.53,North,-999,0.0,0.0,55,0.00,,,0.00,LWC V1.12 B30,2013-07-14 08:50:00,
2013-07-14 02:55:00,76.2,58.8,29.53,North,-999,0.0,0.0,55,0.00,,,0.00,LWC V1.12 B30,2013-07-14 08:55:00,
2013-07-14 03:00:00,76.2,58.3,29.53,North,-999,0.0,0.0,54,0.00,,,0.00,LWC V1.12 B30,2013-07-14 09:00:00,
2013-07-14 03:05:00,76.1,59.2,29.53,North,-999,0.0,0.0,56,0.00,,,0.00,LWC V1.12 B30,2013-07-14 09:05:00,
2013-07-14 03:10:00,76.1,58.7,29.53,North,-999,0.0,0.0,55,0.00,,,0.00,LWC V1.12 B30,2013-07-14 09:10:00,
2013-07-14 03:15:00,76.0,58.6,29.53,North,-999,0.0,0.0,55,0.00,,,0.00,LWC V1.12 B30,2013-07-14 09:15:00,
2013-07-14 03:20:00,76.0,58.1,29.53,North,-999,0.0,0.0,54,0.00,,,0.00,LWC V1.12 B30,2013-07-14 09:20:00,
2013-07-14 03:25:00,76.0,57.6,29.53,North,-999,0.0,0.0,53,0.00,,,0.00,LWC V1.12 B30,2013-07-14 09:25:00,
2013-07-14 03:30:00,75.9,58.0,29.53,North,-999,0.0,0.0,54,0.00,,,0.00,LWC V1.12 B30,2013-07-14 09:30:00,
2013-07-14 03:35:00,75.9,58.6,29.53,North,-999,0.0,0.0,55,0.00,,,0.00,LWC V1.12 B30,2013-07-14 09:35:00,
2013-07-14 03:40:00,75.8,58.5,29.53,North,-999,0.0,0.0,55,0.00,,,0.00,LWC V1.12 B30,2013-07-14 09:40:00,
2013-07-14 03:45:00,75.8,57.9,29.53,North,-999,0.0,0.0,54,0.00,,,0.00,LWC V1.12 B30,2013-07-14 09:45:00,
2013-07-14 03:50:00,75.8,58.5,29.53,North,-999,0.0,0.0,55,0.00,,,0.00,LWC V1.12 B30,2013-07-14 09:50:00,
2013-07-14 03:55:00,75.7,58.4,29.53,North,-999,0.0,0.0,55,0.00,,,0.00,LWC V1.12 B30,2013-07-14 09:55:00,
2013-07-14 04:00:00,75.6,58.3,29.53,North,-999,0.0,0.0,55,0.00,,,0.00,LWC V1.12 B30,2013-07-14 10:00:00,
2013-07-14 04:05:00,75.4,58.1,29.53,North,-999,0.0,0.0,55,0.00,,,0.00,LWC V1.12 B30,2013-07-14 10:05:00,
2013-07-14 04:10:00,75.3,58.0,29.53,North,-999,0.0,0.0,55,0.00,,,0.00,LWC V1.12 B30,2013-07-14 10:10:00,
2013-07-14 04:15:00,75.1,58.3,29.53,North,-999,0.0,0.0,56,0.00,,,0.00,LWC V1.12 B30,2013-07-14 10:15:00,
2013-07-14 04:20:00,74.9,58.6,29.53,North,-999,0.0,0.0,57,0.00,,,0.00,LWC V1.12 B30,2013-07-14 10:20:00,
2013-07-14 04:25:00,74.8,58.5,29.53,North,-999,0.0,0.0,57,0.00,,,0.00,LWC V1.12 B30,2013-07-14 10:25:00,
2013-07-14 04:30:00,74.7,57.9,29.53,North,-999,0.0,0.0,56,0.00,,,0.00,LWC V1.12 B30,2013-07-14 10:30:00,
2013-07-14 04:35:00,74.6,57.8,29.53,North,-999,0.0,0.0,56,0.00,,,0.00,LWC V1.12 B30,2013-07-14 10:35:00,
2013-07-14 04:40:00,74.6,58.3,29.53,North,-999,0.0,0.0,57,0.00,,,0.00,LWC V1.12 B30,2013-07-14 10:40:00,
2013-07-14 04:45:00,74.6,58.3,29.53,North,-999,0.0,0.0,57,0.00,,,0.00,LWC V1.12 B30,2013-07-14 10:45:00,
2013-07-14 04:50:00,74.6,58.3,29.53,North,-999,0.0,0.0,57,0.00,,,0.00,LWC V1.12 B30,2013-07-14 10:50:00,
2013-07-14 04:55:00,74.6,58.3,29.53,North,-999,0.0,0.0,57,0.00,,,0.00,LWC V1.12 B30,2013-07-14 10:55:00,
2013-07-14 05:00:00,74.5,58.2,29.53,North,-999,0.0,0.0,57,0.00,,,0.00,LWC V1.12 B30,2013-07-14 11:00:00,
2013-07-14 05:05:00,74.4,58.6,29.53,North,-999,0.0,0.0,58,0.00,,,0.00,LWC V1.12 B30,2013-07-14 11:05:00,
2013-07-14 05:10:00,74.4,58.2,29.53,North,-999,0.0,0.0,57,0.00,,,0.00,LWC V1.12 B30,2013-07-14 11:10:00,
2013-07-14 05:15:00,74.4,58.6,29.53,North,-999,0.0,0.0,58,0.00,,,0.00,LWC V1.12 B30,2013-07-14 11:15:00,
2013-07-14 05:20:00,74.3,58.5,29.53,North,-999,0.0,0.0,58,0.00,,,0.00,LWC V1.12 B30,2013-07-14 11:20:00,
2013-07-14 05:25:00,74.3,59.0,29.53,North,-999,0.0,0.0,59,0.00,,,0.00,LWC V1.12 B30,2013-07-14 11:25:00,
2013-07-14 05:30:00,74.3,59.0,29.53,North,-999,0.0,0.0,59,0.00,,,0.00,LWC V1.12 B30,2013-07-14 11:30:00,
2013-07-14 05:35:00,74.2,58.9,29.53,North,-999,0.0,0.0,59,0.00,,,0.00,LWC V1.12 B30,2013-07-14 11:35:00,
2013-07-14 05:40:00,74.2,58.9,29.53,North,-999,0.0,0.0,59,0.00,,,0.00,LWC V1.12 B30,2013-07-14 11:40:00,
2013-07-14 05:45:00,74.2,58.5,29.53,North,-999,0.0,0.0,58,0.00,,,0.00,LWC V1.12 B30,2013-07-14 11:45:00,
2013-07-14 05:50:00,74.2,58.9,29.53,North,-999,0.0,0.0,59,0.00,,,0.00,LWC V1.12 B30,2013-07-14 11:50:00,
2013-07-14 05:55:00,74.1,58.8,29.53,North,-999,0.0,0.0,59,0.00,,,0.00,LWC V1.12 B30,2013-07-14 11:55:00,
2013-07-14 06:00:00,74.1,59.3,29.53,North,-999,0.0,0.0,60,0.00,,,0.00,LWC V1.12 B30,2013-07-14 12:00:00,
2013-07-14 06:05:00,74.1,58.4,29.53,North,-999,0.0,0.0,58,0.00,,,0.00,LWC V1.12 B30,2013-07-14 12:05:00,
2013-07-14 06:10:00,74.0,58.3,29.53,North,-999,0.0,0.0,58,0.00,,,0.00,LWC V1.12 B30,2013-07-14 12:10:00,
2013-07-14 06:15:00,74.0,58.7,29.53,North,-999,0.0,0.0,59,0.00,,,0.00,LWC V1.12 B30,2013-07-14 12:15:00,
2013-07-14 06:20:00,73.9,58.7,29.53,North,-999,0.0,0.0,59,0.00,,,0.00,LWC V1.12 B30,2013-07-14 12:20:00,
2013-07-14 06:25:00,73.9,58.2,29.53,North,-999,0.0,0.0,58,0.00,,,0.00,LWC V1.12 B30,2013-07-14 12:25:00,
2013-07-14 06:30:00,73.8,58.1,29.53,North,-999,0.0,0.0,58,0.00,,,0.00,LWC V1.12 B30,2013-07-14 12:30:00,
2013-07-14 06:35:00,73.7,58.0,29.53,North,-999,0.0,0.0,58,0.00,,,0.00,LWC V1.12 B30,2013-07-14 12:35:00,
2013-07-14 06:40:00,73.6,57.9,29.53,North,-999,0.0,0.0,58,0.00,,,0.00,LWC V1.12 B30,2013-07-14 12:40:00,
2013-07-14 06:45:00,73.6,57.9,29.53,North,-999,0.0,0.0,58,0.00,,,0.00,LWC V1.12 B30,2013-07-14 12:45:00,
2013-07-14 06:50:00,73.4,57.7,29.53,North,-999,0.0,0.0,58,0.00,,,0.00,LWC V1.12 B30,2013-07-14 12:50:00,
2013-07-14 06:55:00,73.4,57.2,29.53,North,-999,0.0,0.0,57,0.00,,,0.00,LWC V1.12 B30,2013-07-14 12:55:00,
2013-07-14 07:00:00,73.5,57.3,29.53,North,-999,0.0,0.0,57,0.00,,,0.00,LWC V1.12 B30,2013-07-14 13:00:00,
2013-07-14 07:05:00,73.4,57.2,29.53,North,-999,0.0,0.0,57,0.00,,,0.00,LWC V1.12 B30,2013-07-14 13:05:00,
2013-07-14 07:10:00,73.4,57.7,29.53,North,-999,0.0,0.0,58,0.00,,,0.00,LWC V1.12 B30,2013-07-14 13:10:00,
2013-07-14 07:11:00,73.5,57.8,29.53,North,-999,0.0,0.0,58,0.00,,,0.00,LWC V1.12 B30,2013-07-14 13:11:00,
2013-07-14 07:16:00,73.5,57.8,29.53,North,-999,0.0,0.0,58,0.00,,,0.00,LWC V1.12 B30,2013-07-14 13:16:00,
2013-07-14 07:21:00,73.4,57.2,29.53,North,-999,0.0,0.0,57,0.00,,,0.00,LWC V1.12 B30,2013-07-14 13:21:00,
2013-07-14 07:26:00,73.4,56.7,29.53,North,-999,0.0,0.0,56,0.00,,,0.00,LWC V1.12 B30,2013-07-14 13:26:00,
2013-07-14 07:31:00,73.3,57.1,29.53,North,-999,0.0,0.0,57,0.00,,,0.00,LWC V1.12 B30,2013-07-14 13:31:00,
2013-07-14 07:36:00,73.3,57.6,29.53,North,-999,0.0,0.0,58,0.00,,,0.00,LWC V1.12 B30,2013-07-14 13:36:00,
2013-07-14 07:41:00,73.6,57.4,29.53,North,-999,0.0,0.0,57,0.00,,,0.00,LWC V1.12 B30,2013-07-14 13:41:00,
2013-07-14 07:46:00,73.8,57.6,29.53,North,-999,0.0,0.0,57,0.00,,,0.00,LWC V1.12 B30,2013-07-14 13:46:00,
2013-07-14 07:51:00,73.9,58.2,29.53,North,-999,0.0,0.0,58,0.00,,,0.00,LWC V1.12 B30,2013-07-14 13:51:00,
2013-07-14 07:56:00,74.4,58.2,29.53,North,-999,0.0,0.0,57,0.00,,,0.00,LWC V1.12 B30,2013-07-14 13:56:00,
2013-07-14 08:01:00,75.0,58.2,29.53,North,-999,0.0,0.0,56,0.00,,,0.00,LWC V1.12 B30,2013-07-14 14:01:00,
2013-07-14 08:06:00,75.2,57.9,29.53,North,-999,0.0,0.0,55,0.00,,,0.00,LWC V1.12 B30,2013-07-14 14:06:00,
2013-07-14 08:11:00,75.5,57.7,29.53,North,-999,0.0,0.0,54,0.00,,,0.00,LWC V1.12 B30,2013-07-14 14:11:00,
2013-07-14 08:16:00,76.0,57.6,29.53,North,-999,0.0,0.0,53,0.00,,,0.00,LWC V1.12 B30,2013-07-14 14:16:00,
2013-07-14 08:21:00,75.6,57.2,29.53,North,-999,0.0,0.0,53,0.00,,,0.00,LWC V1.12 B30,2013-07-14 14:21:00,
2013-07-14 08:26:00,75.4,57.6,29.53,North,-999,0.0,0.0,54,0.00,,,0.00,LWC V1.12 B30,2013-07-14 14:26:00,
2013-07-14 08:31:00,75.9,58.0,29.53,North,-999,0.0,0.0,54,0.00,,,0.00,LWC V1.12 B30,2013-07-14 14:31:00,
2013-07-14 08:36:00,77.9,57.7,29.53,North,-999,0.0,0.0,50,0.00,,,0.00,LWC V1.12 B30,2013-07-14 14:36:00,
2013-07-14 08:41:00,80.9,58.2,29.53,North,-999,0.0,0.0,46,0.00,,,0.00,LWC V1.12 B30,2013-07-14 14:41:00,
2013-07-14 08:46:00,83.7,59.4,29.53,North,-999,0.0,0.0,44,0.00,,,0.00,LWC V1.12 B30,2013-07-14 14:46:00,
2013-07-14 08:51:00,84.2,57.2,29.53,North,-999,0.0,0.0,40,0.00,,,0.00,LWC V1.12 B30,2013-07-14 14:51:00,
2013-07-14 08:56:00,82.4,58.3,29.53,North,-999,0.0,0.0,44,0.00,,,0.00,LWC V1.12 B30,2013-07-14 14:56:00,
2013-07-14 09:01:00,81.3,57.3,29.53,North,-999,0.0,0.0,44,0.00,,,0.00,LWC V1.12 B30,2013-07-14 15:01:00,
2013-07-14 09:06:00,81.0,57.6,29.53,North,-999,0.0,0.0,45,0.00,,,0.00,LWC V1.12 B30,2013-07-14 15:06:00,
2013-07-14 09:11:00,80.7,57.4,29.53,North,-999,0.0,0.0,45,0.00,,,0.00,LWC V1.12 B30,2013-07-14 15:11:00,
2013-07-14 09:16:00,80.4,56.5,29.53,North,-999,0.0,0.0,44,0.00,,,0.00,LWC V1.12 B30,2013-07-14 15:16:00,
2013-07-14 09:21:00,80.2,56.9,29.53,North,-999,0.0,0.0,45,0.00,,,0.00,LWC V1.12 B30,2013-07-14 15:21:00,
2013-07-14 09:26:00,80.6,57.9,29.53,North,-999,0.0,0.0,46,0.00,,,0.00,LWC V1.12 B30,2013-07-14 15:26:00,
2013-07-14 09:31:00,81.0,56.4,29.53,North,-999,0.0,0.0,43,0.00,,,0.00,LWC V1.12 B30,2013-07-14 15:31:00,
2013-07-14 09:36:00,81.1,56.5,29.53,North,-999,0.0,0.0,43,0.00,,,0.00,LWC V1.12 B30,2013-07-14 15:36:00,
2013-07-14 09:41:00,81.4,57.4,29.53,North,-999,0.0,0.0,44,0.00,,,0.00,LWC V1.12 B30,2013-07-14 15:41:00,
2013-07-14 09:46:00,81.7,56.3,29.53,North,-999,0.0,0.0,42,0.00,,,0.00,LWC V1.12 B30,2013-07-14 15:46:00,
2013-07-14 09:51:00,82.0,56.6,29.53,North,-999,0.0,0.0,42,0.00,,,0.00,LWC V1.12 B30,2013-07-14 15:51:00,
2013-07-14 09:56:00,82.5,56.4,29.53,North,-999,0.0,0.0,41,0.00,,,0.00,LWC V1.12 B30,2013-07-14 15:56:00,
2013-07-14 10:01:00,82.9,55.4,29.53,North,-999,0.0,0.0,39,0.00,,,0.00,LWC V1.12 B30,2013-07-14 16:01:00,
2013-07-14 10:06:00,82.9,55.4,29.53,North,-999,0.0,0.0,39,0.00,,,0.00,LWC V1.12 B30,2013-07-14 16:06:00,
2013-07-14 10:11:00,83.1,56.2,29.53,North,-999,0.0,0.0,40,0.00,,,0.00,LWC V1.12 B30,2013-07-14 16:11:00,
2013-07-14 10:16:00,83.3,55.0,29.53,North,-999,0.0,0.0,38,0.00,,,0.00,LWC V1.12 B30,2013-07-14 16:16:00,
2013-07-14 10:21:00,83.8,56.2,29.53,North,-999,0.0,0.0,39,0.00,,,0.00,LWC V1.12 B30,2013-07-14 16:21:00,
2013-07-14 10:26:00,84.1,55.0,29.53,North,-999,0.0,0.0,37,0.00,,,0.00,LWC V1.12 B30,2013-07-14 16:26:00,
2013-07-14 10:31:00,84.4,54.5,29.53,North,-999,0.0,0.0,36,0.00,,,0.00,LWC V1.12 B30,2013-07-14 16:31:00,
2013-07-14 10:36:00,84.7,54.8,29.53,North,-999,0.0,0.0,36,0.00,,,0.00,LWC V1.12 B30,2013-07-14 16:36:00,
2013-07-14 10:41:00,85.0,55.8,29.53,North,-999,0.0,0.0,37,0.00,,,0.00,LWC V1.12 B30,2013-07-14 16:41:00,
2013-07-14 10:46:00,85.5,54.7,29.53,North,-999,0.0,0.0,35,0.00,,,0.00,LWC V1.12 B30,2013-07-14 16:46:00,
2013-07-14 10:51:00,85.9,55.0,29.53,North,-999,0.0,0.0,35,0.00,,,0.00,LWC V1.12 B30,2013-07-14 16:51:00,
2013-07-14 10:56:00,85.8,53.3,29.53,North,-999,0.0,0.0,33,0.00,,,0.00,LWC V1.12 B30,2013-07-14 16:56:00,
2013-07-14 11:01:00,86.2,53.7,29.53,North,-999,0.0,0.0,33,0.00,,,0.00,LWC V1.12 B30,2013-07-14 17:01:00,
2013-07-14 11:06:00,86.5,55.6,29.53,North,-999,0.0,0.0,35,0.00,,,0.00,LWC V1.12 B30,2013-07-14 17:06:00,
2013-07-14 11:11:00,87.0,54.4,29.53,North,-999,0.0,0.0,33,0.00,,,0.00,LWC V1.12 B30,2013-07-14 17:11:00,
2013-07-14 11:16:00,87.5,54.8,29.53,North,-999,0.0,0.0,33,0.00,,,0.00,LWC V1.12 B30,2013-07-14 17:16:00,
2013-07-14 11:21:00,87.8,55.1,29.53,North,-999,0.0,0.0,33,0.00,,,0.00,LWC V1.12 B30,2013-07-14 17:21:00,
2013-07-14 11:26:00,87.6,54.1,29.53,North,-999,0.0,0.0,32,0.00,,,0.00,LWC V1.12 B30,2013-07-14 17:26:00,
2013-07-14 11:31:00,87.9,55.2,29.53,North,-999,0.0,0.0,33,0.00,,,0.00,LWC V1.12 B30,2013-07-14 17:31:00,
2013-07-14 11:36:00,88.2,54.6,29.53,North,-999,0.0,0.0,32,0.00,,,0.00,LWC V1.12 B30,2013-07-14 17:36:00,
2013-07-14 11:41:00,88.6,54.9,29.53,North,-999,0.0,0.0,32,0.00,,,0.00,LWC V1.12 B30,2013-07-14 17:41:00,
2013-07-14 11:46:00,89.1,53.6,29.53,North,-999,0.0,0.0,30,0.00,,,0.00,LWC V1.12 B30,2013-07-14 17:46:00,
2013-07-14 11:51:00,89.0,54.4,29.53,North,-999,0.0,0.0,31,0.00,,,0.00,LWC V1.12 B30,2013-07-14 17:51:00,
2013-07-14 11:56:00,89.1,54.5,29.53,North,-999,0.0,0.0,31,0.00,,,0.00,LWC V1.12 B30,2013-07-14 17:56:00,
2013-07-14 12:01:00,89.6,54.0,29.53,North,-999,0.0,0.0,30,0.00,,,0.00,LWC V1.12 B30,2013-07-14 18:01:00,
2013-07-14 12:06:00,89.7,54.1,29.53,North,-999,0.0,0.0,30,0.00,,,0.00,LWC V1.12 B30,2013-07-14 18:06:00,
2013-07-14 12:11:00,90.1,53.5,29.53,North,-999,0.0,0.0,29,0.00,,,0.00,LWC V1.12 B30,2013-07-14 18:11:00,
2013-07-14 12:16:00,90.4,53.8,29.53,North,-999,0.0,0.0,29,0.00,,,0.00,LWC V1.12 B30,2013-07-14 18:16:00,
2013-07-14 12:21:00,90.6,53.0,29.53,North,-999,0.0,0.0,28,0.00,,,0.00,LWC V1.12 B30,2013-07-14 18:21:00,
2013-07-14 12:26:00,91.0,54.3,29.53,North,-999,0.0,0.0,29,0.00,,,0.00,LWC V1.12 B30,2013-07-14 18:26:00,
2013-07-14 12:31:00,91.5,54.7,29.53,North,-999,0.0,0.0,29,0.00,,,0.00,LWC V1.12 B30,2013-07-14 18:31:00,
2013-07-14 12:36:00,91.8,54.0,29.53,North,-999,0.0,0.0,28,0.00,,,0.00,LWC V1.12 B30,2013-07-14 18:36:00,
2013-07-14 12:41:00,92.0,53.2,29.53,North,-999,0.0,0.0,27,0.00,,,0.00,LWC V1.12 B30,2013-07-14 18:41:00,
2013-07-14 12:46:00,92.4,53.5,29.53,North,-999,0.0,0.0,27,0.00,,,0.00,LWC V1.12 B30,2013-07-14 18:46:00,
2013-07-14 12:51:00,92.4,53.5,29.53,North,-999,0.0,0.0,27,0.00,,,0.00,LWC V1.12 B30,2013-07-14 18:51:00,
2013-07-14 12:56:00,92.6,53.7,29.53,North,-999,0.0,0.0,27,0.00,,,0.00,LWC V1.12 B30,2013-07-14 18:56:00,
2013-07-14 13:01:00,92.9,53.9,29.53,North,-999,0.0,0.0,27,0.00,,,0.00,LWC V1.12 B30,2013-07-14 19:01:00,
2013-07-14 13:06:00,93.1,54.1,29.53,North,-999,0.0,0.0,27,0.00,,,0.00,LWC V1.12 B30,2013-07-14 19:06:00,
2013-07-14 13:11:00,93.4,54.4,29.53,North,-999,0.0,0.0,27,0.00,,,0.00,LWC V1.12 B30,2013-07-14 19:11:00,
2013-07-14 13:16:00,93.5,52.3,29.53,North,-999,0.0,0.0,25,0.00,,,0.00,LWC V1.12 B30,2013-07-14 19:16:00,
2013-07-14 13:21:00,93.3,54.3,29.53,North,-999,0.0,0.0,27,0.00,,,0.00,LWC V1.12 B30,2013-07-14 19:21:00,
2013-07-14 13:26:00,93.5,52.3,29.53,North,-999,0.0,0.0,25,0.00,,,0.00,LWC V1.12 B30,2013-07-14 19:26:00,
2013-07-14 13:31:00,93.9,53.8,29.53,North,-999,0.0,0.0,26,0.00,,,0.00,LWC V1.12 B30,2013-07-14 19:31:00,
2013-07-14 13:36:00,94.2,52.9,29.53,North,-999,0.0,0.0,25,0.00,,,0.00,LWC V1.12 B30,2013-07-14 19:36:00,
2013-07-14 13:41:00,94.4,53.1,29.53,North,-999,0.0,0.0,25,0.00,,,0.00,LWC V1.12 B30,2013-07-14 19:41:00,
2013-07-14 13:46:00,94.6,52.2,29.53,North,-999,0.0,0.0,24,0.00,,,0.00,LWC V1.12 B30,2013-07-14 19:46:00,
2013-07-14 13:51:00,94.8,52.3,29.53,North,-999,0.0,0.0,24,0.00,,,0.00,LWC V1.12 B30,2013-07-14 19:51:00,
2013-07-14 13:56:00,94.8,52.3,29.53,North,-999,0.0,0.0,24,0.00,,,0.00,LWC V1.12 B30,2013-07-14 19:56:00,
2013-07-14 14:01:00,94.7,52.2,29.53,North,-999,0.0,0.0,24,0.00,,,0.00,LWC V1.12 B30,2013-07-14 20:01:00,
2013-07-14 14:06:00,94.7,52.2,29.53,North,-999,0.0,0.0,24,0.00,,,0.00,LWC V1.12 B30,2013-07-14 20:06:00,
2013-07-14 14:11:00,94.9,52.4,29.53,North,-999,0.0,0.0,24,0.00,,,0.00,LWC V1.12 B30,2013-07-14 20:11:00,
2013-07-14 14:16:00,95.3,53.9,29.53,North,-999,0.0,0.0,25,0.00,,,0.00,LWC V1.12 B30,2013-07-14 20:16:00,
2013-07-14 14:21:00,95.5,52.9,29.53,North,-999,0.0,0.0,24,0.00,,,0.00,LWC V1.12 B30,2013-07-14 20:21:00,
2013-07-14 14:26:00,95.7,51.9,29.53,North,-999,0.0,0.0,23,0.00,,,0.00,LWC V1.12 B30,2013-07-14 20:26:00,
2013-07-14 14:31:00,95.4,52.8,29.53,North,-999,0.0,0.0,24,0.00,,,0.00,LWC V1.12 B30,2013-07-14 20:31:00,
2013-07-14 14:36:00,95.6,53.0,29.53,North,-999,0.0,0.0,24,0.00,,,0.00,LWC V1.12 B30,2013-07-14 20:36:00,
2013-07-14 14:41:00,95.8,53.2,29.53,North,-999,0.0,0.0,24,0.00,,,0.00,LWC V1.12 B30,2013-07-14 20:41:00,
2013-07-14 14:46:00,95.8,53.2,29.53,North,-999,0.0,0.0,24,0.00,,,0.00,LWC V1.12 B30,2013-07-14 20:46:00,
2013-07-14 14:51:00,95.9,53.2,29.53,North,-999,0.0,0.0,24,0.00,,,0.00,LWC V1.12 B30,2013-07-14 20:51:00,
2013-07-14 14:56:00,96.2,53.5,29.53,North,-999,0.0,0.0,24,0.00,,,0.00,LWC V1.12 B30,2013-07-14 20:56:00,
2013-07-14 15:01:00,96.4,53.7,29.53,North,-999,0.0,0.0,24,0.00,,,0.00,LWC V1.12 B30,2013-07-14 21:01:00,
2013-07-14 15:06:00,96.2,53.5,29.53,North,-999,0.0,0.0,24,0.00,,,0.00,LWC V1.12 B30,2013-07-14 21:06:00,
2013-07-14 15:11:00,96.5,53.7,29.53,North,-999,0.0,0.0,24,0.00,,,0.00,LWC V1.12 B30,2013-07-14 21:11:00,
2013-07-14 15:16:00,96.3,53.6,29.53,North,-999,0.0,0.0,24,0.00,,,0.00,LWC V1.12 B30,2013-07-14 21:16:00,
2013-07-14 15:21:00,96.4,53.7,29.53,North,-999,0.0,0.0,24,0.00,,,0.00,LWC V1.12 B30,2013-07-14 21:21:00,
2013-07-14 15:26:00,96.3,52.4,29.53,North,-999,0.0,0.0,23,0.00,,,0.00,LWC V1.12 B30,2013-07-14 21:26:00,
2013-07-14 15:31:00,96.3,53.6,29.53,North,-999,0.0,0.0,24,0.00,,,0.00,LWC V1.12 B30,2013-07-14 21:31:00,
2013-07-14 15:36:00,96.3,52.4,29.53,North,-999,0.0,0.0,23,0.00,,,0.00,LWC V1.12 B30,2013-07-14 21:36:00,
2013-07-14 15:41:00,96.4,53.7,29.53,North,-999,0.0,0.0,24,0.00,,,0.00,LWC V1.12 B30,2013-07-14 21:41:00,
2013-07-14 15:46:00,96.4,52.5,29.53,North,-999,0.0,0.0,23,0.00,,,0.00,LWC V1.12 B30,2013-07-14 21:46:00,
2013-07-14 15:51:00,96.1,53.4,29.53,North,-999,0.0,0.0,24,0.00,,,0.00,LWC V1.12 B30,2013-07-14 21:51:00,
2013-07-14 15:56:00,96.3,52.4,29.53,North,-999,0.0,0.0,23,0.00,,,0.00,LWC V1.12 B30,2013-07-14 21:56:00,
2013-07-14 16:01:00,96.4,53.7,29.53,North,-999,0.0,0.0,24,0.00,,,0.00,LWC V1.12 B30,2013-07-14 22:01:00,
2013-07-14 16:06:00,96.7,52.7,29.53,North,-999,0.0,0.0,23,0.00,,,0.00,LWC V1.12 B30,2013-07-14 22:06:00,
2013-07-14 16:11:00,96.7,51.5,29.53,North,-999,0.0,0.0,22,0.00,,,0.00,LWC V1.12 B30,2013-07-14 22:11:00,
2013-07-14 16:16:00,96.7,53.9,29.53,North,-999,0.0,0.0,24,0.00,,,0.00,LWC V1.12 B30,2013-07-14 22:16:00,
2013-07-14 16:21:00,96.9,52.9,29.53,North,-999,0.0,0.0,23,0.00,,,0.00,LWC V1.12 B30,2013-07-14 22:21:00,
2013-07-14 16:26:00,97.0,53.0,29.53,North,-999,0.0,0.0,23,0.00,,,0.00,LWC V1.12 B30,2013-07-14 22:26:00,
2013-07-14 16:31:00,96.8,51.6,29.53,North,-999,0.0,0.0,22,0.00,,,0.00,LWC V1.12 B30,2013-07-14 22:31:00,
2013-07-14 16:36:00,95.9,52.1,29.53,North,-999,0.0,0.0,23,0.00,,,0.00,LWC V1.12 B30,2013-07-14 22:36:00,
2013-07-14 16:41:00,95.8,52.0,29.53,North,-999,0.0,0.0,23,0.00,,,0.00,LWC V1.12 B30,2013-07-14 22:41:00,
2013-07-14 16:46:00,95.7,51.9,29.53,North,-999,0.0,0.0,23,0.00,,,0.00,LWC V1.12 B30,2013-07-14 22:46:00,
2013-07-14 16:51:00,95.4,51.7,29.53,North,-999,0.0,0.0,23,0.00,,,0.00,LWC V1.12 B30,2013-07-14 22:51:00,
2013-07-14 16:56:00,94.9,52.4,29.53,North,-999,0.0,0.0,24,0.00,,,0.00,LWC V1.12 B30,2013-07-14 22:56:00,
2013-07-14 17:01:00,94.5,52.1,29.53,North,-999,0.0,0.0,24,0.00,,,0.00,LWC V1.12 B30,2013-07-14 23:01:00,
2013-07-14 17:06:00,94.1,51.7,29.53,North,-999,0.0,0.0,24,0.00,,,0.00,LWC V1.12 B30,2013-07-14 23:06:00,
2013-07-14 17:11:00,93.9,51.6,29.53,North,-999,0.0,0.0,24,0.00,,,0.00,LWC V1.12 B30,2013-07-14 23:11:00,
2013-07-14 17:16:00,93.7,51.4,29.53,North,-999,0.0,0.0,24,0.00,,,0.00,LWC V1.12 B30,2013-07-14 23:16:00,
2013-07-14 17:21:00,93.6,52.4,29.53,North,-999,0.0,0.0,25,0.00,,,0.00,LWC V1.12 B30,2013-07-14 23:21:00,
2013-07-14 17:26:00,93.5,52.3,29.53,North,-999,0.0,0.0,25,0.00,,,0.00,LWC V1.12 B30,2013-07-14 23:26:00,
2013-07-14 17:31:00,94.0,51.7,29.53,North,-999,0.0,0.0,24,0.00,,,0.00,LWC V1.12 B30,2013-07-14 23:31:00,
2013-07-14 17:36:00,94.0,52.8,29.53,North,-999,0.0,0.0,25,0.00,,,0.00,LWC V1.12 B30,2013-07-14 23:36:00,
2013-07-14 17:41:00,94.1,52.9,29.53,North,-999,0.0,0.0,25,0.00,,,0.00,LWC V1.12 B30,2013-07-14 23:41:00,
2013-07-14 17:46:00,93.8,52.6,29.53,North,-999,0.0,0.0,25,0.00,,,0.00,LWC V1.12 B30,2013-07-14 23:46:00,
2013-07-14 17:51:00,93.5,54.5,29.53,North,-999,0.0,0.0,27,0.00,,,0.00,LWC V1.12 B30,2013-07-14 23:51:00,
2013-07-14 17:56:00,92.1,55.2,29.53,North,-999,0.0,0.0,29,0.00,,,0.00,LWC V1.12 B30,2013-07-14 23:56:00,
2013-07-14 18:01:00,90.9,55.1,29.53,North,-999,0.0,0.0,30,0.00,,,0.00,LWC V1.12 B30,2013-07-15 00:01:00,
2013-07-14 18:06:00,89.6,55.8,29.53,North,-999,0.0,0.0,32,0.00,,,0.00,LWC V1.12 B30,2013-07-15 00:06:00,
2013-07-14 18:11:00,88.7,55.9,29.53,North,-999,0.0,0.0,33,0.00,,,0.00,LWC V1.12 B30,2013-07-15 00:11:00,
2013-07-14 18:16:00,87.8,55.1,29.53,North,-999,0.0,0.0,33,0.00,,,0.00,LWC V1.12 B30,2013-07-15 00:16:00,
2013-07-14 18:21:00,87.0,54.4,29.53,North,-999,0.0,0.0,33,0.00,,,0.00,LWC V1.12 B30,2013-07-15 00:21:00,
2013-07-14 18:26:00,86.4,55.5,29.53,North,-999,0.0,0.0,35,0.00,,,0.00,LWC V1.12 B30,2013-07-15 00:26:00,
2013-07-14 18:31:00,85.5,55.5,29.53,North,-999,0.0,0.0,36,0.00,,,0.00,LWC V1.12 B30,2013-07-15 00:31:00,
2013-07-14 18:36:00,85.2,56.0,29.53,North,-999,0.0,0.0,37,0.00,,,0.00,LWC V1.12 B30,2013-07-15 00:36:00,
2013-07-14 18:41:00,84.5,56.1,29.53,North,-999,0.0,0.0,38,0.00,,,0.00,LWC V1.12 B30,2013-07-15 00:41:00,
2013-07-14 18:46:00,84.4,56.0,29.53,North,-999,0.0,0.0,38,0.00,,,0.00,LWC V1.12 B30,2013-07-15 00:46:00,
2013-07-14 18:51:00,83.7,57.5,29.53,North,-999,0.0,0.0,41,0.00,,,0.00,LWC V1.12 B30,2013-07-15 00:51:00,
2013-07-14 18:56:00,82.9,59.3,29.53,North,-999,0.0,0.0,45,0.00,,,0.00,LWC V1.12 B30,2013-07-15 00:56:00,
2013-07-14 19:01:00,82.2,59.3,29.53,North,-999,0.0,0.0,46,0.00,,,0.03,LWC V1.12 B30,2013-07-15 01:01:00,
2013-07-14 19:06:00,81.9,56.5,29.53,North,-999,0.0,0.0,42,0.00,,,0.03,LWC V1.12 B30,2013-07-15 01:06:00,
2013-07-14 19:11:00,82.0,55.9,29.53,North,-999,0.0,0.0,41,0.00,,,0.03,LWC V1.12 B30,2013-07-15 01:11:00,
2013-07-14 19:16:00,81.8,56.4,29.53,North,-999,0.0,0.0,42,0.00,,,0.03,LWC V1.12 B30,2013-07-15 01:16:00,
2013-07-14 19:21:00,81.6,57.5,29.53,North,-999,0.0,0.0,44,0.00,,,0.03,LWC V1.12 B30,2013-07-15 01:21:00,
2013-07-14 19:26:00,81.3,56.0,29.53,North,-999,0.0,0.0,42,0.00,,,0.03,LWC V1.12 B30,2013-07-15 01:26:00,
2013-07-14 19:31:00,81.0,58.8,29.53,North,-999,0.0,0.0,47,0.00,,,0.03,LWC V1.12 B30,2013-07-15 01:31:00,
2013-07-14 19:36:00,80.7,59.7,29.53,North,-999,0.0,0.0,49,0.00,,,0.03,LWC V1.12 B30,2013-07-15 01:36:00,
2013-07-14 19:41:00,80.1,61.9,29.53,North,-999,0.0,0.0,54,0.00,,,0.03,LWC V1.12 B30,2013-07-15 01:41:00,
2013-07-14 19:46:00,78.4,61.9,29.53,North,-999,0.0,0.0,57,0.00,,,0.04,LWC V1.12 B30,2013-07-15 01:46:00,
2013-07-14 19:51:00,78.1,63.1,29.53,North,-999,0.0,0.0,60,0.00,,,0.04,LWC V1.12 B30,2013-07-15 01:51:00,
2013-07-14 19:56:00,77.9,62.9,29.53,North,-999,0.0,0.0,60,0.00,,,0.04,LWC V1.12 B30,2013-07-15 01:56:00,
2013-07-14 20:01:00,77.6,61.1,29.53,North,-999,0.0,0.0,57,0.00,,,0.06,LWC V1.12 B30,2013-07-15 02:01:00,
2013-07-14 20:06:00,77.3,60.4,29.53,North,-999,0.0,0.0,56,0.00,,,0.06,LWC V1.12 B30,2013-07-15 02:06:00,
2013-07-14 20:11:00,77.4,59.9,29.53,North,-999,0.0,0.0,55,0.00,,,0.06,LWC V1.12 B30,2013-07-15 02:11:00,
2013-07-14 20:16:00,77.4,61.0,29.53,North,-999,0.0,0.0,57,0.00,,,0.06,LWC V1.12 B30,2013-07-15 02:16:00,
2013-07-14 20:21:00,77.2,60.8,29.53,North,-999,0.0,0.0,57,0.00,,,0.06,LWC V1.12 B30,2013-07-15 02:21:00,
2013-07-14 20:26:00,77.1,60.2,29.53,North,-999,0.0,0.0,56,0.00,,,0.06,LWC V1.12 B30,2013-07-15 02:26:00,
2013-07-14 20:31:00,77.1,59.7,29.53,North,-999,0.0,0.0,55,0.00,,,0.06,LWC V1.12 B30,2013-07-15 02:31:00,
2013-07-14 20:36:00,77.2,59.8,29.53,North,-999,0.0,0.0,55,0.00,,,0.06,LWC V1.12 B30,2013-07-15 02:36:00,
2013-07-14 20:41:00,76.9,59.5,29.53,North,-999,0.0,0.0,55,0.00,,,0.06,LWC V1.12 B30,2013-07-15 02:41:00,
2013-07-14 20:46:00,76.7,61.3,29.53,North,-999,0.0,0.0,59,0.02,,,0.06,LWC V1.12 B30,2013-07-15 02:46:00,
2013-07-14 20:51:00,75.6,62.5,29.53,North,-999,0.0,0.0,64,0.05,,,0.06,LWC V1.12 B30,2013-07-15 02:51:00,
2013-07-14 20:56:00,74.6,62.5,29.53,North,-999,0.0,0.0,66,0.00,,,0.06,LWC V1.12 B30,2013-07-15 02:56:00,
2013-07-14 21:01:00,74.0,61.5,29.53,North,-999,0.0,0.0,65,0.00,,,0.11,LWC V1.12 B30,2013-07-15 03:01:00,
2013-07-14 21:06:00,73.9,61.8,29.53,North,-999,0.0,0.0,66,0.00,,,0.11,LWC V1.12 B30,2013-07-15 03:06:00,
2013-07-14 21:11:00,73.9,61.8,29.53,North,-999,0.0,0.0,66,0.00,,,0.11,LWC V1.12 B30,2013-07-15 03:11:00,
2013-07-14 21:16:00,73.8,60.8,29.53,North,-999,0.0,0.0,64,0.00,,,0.11,LWC V1.12 B30,2013-07-15 03:16:00,
2013-07-14 21:21:00,74.0,61.5,29.53,North,-999,0.0,0.0,65,0.00,,,0.11,LWC V1.12 B30,2013-07-15 03:21:00,
2013-07-14 21:26:00,73.9,61.4,29.53,North,-999,0.0,0.0,65,0.00,,,0.11,LWC V1.12 B30,2013-07-15 03:26:00,
2013-07-14 21:31:00,73.9,61.8,29.53,North,-999,0.0,0.0,66,0.00,,,0.11,LWC V1.12 B30,2013-07-15 03:31:00,
2013-07-14 21:36:00,73.9,61.4,29.53,North,-999,0.0,0.0,65,0.00,,,0.11,LWC V1.12 B30,2013-07-15 03:36:00,
2013-07-14 21:41:00,74.1,61.6,29.53,North,-999,0.0,0.0,65,0.00,,,0.11,LWC V1.12 B30,2013-07-15 03:41:00,
2013-07-14 21:46:00,74.1,62.0,29.53,North,-999,0.0,0.0,66,0.00,,,0.11,LWC V1.12 B30,2013-07-15 03:46:00,
2013-07-14 21:51:00,74.0,62.3,29.53,North,-999,0.0,0.0,67,0.12,,,0.11,LWC V1.12 B30,2013-07-15 03:51:00,
2013-07-14 21:56:00,73.6,62.4,29.53,North,-999,0.0,0.0,68,0.00,,,0.11,LWC V1.12 B30,2013-07-15 03:56:00,
2013-07-14 22:01:00,73.5,62.7,29.53,North,-999,0.0,0.0,69,0.00,,,0.15,LWC V1.12 B30,2013-07-15 04:01:00,
2013-07-14 22:02:00,73.3,62.5,29.53,North,-999,0.0,0.0,69,0.28,,,0.15,LWC V1.12 B30,2013-07-15 04:02:00,
2013-07-14 22:03:00,73.3,62.9,29.53,North,-999,0.0,0.0,70,0.13,,,0.15,LWC V1.12 B30,2013-07-15 04:03:00,
2013-07-14 22:04:00,73.3,62.1,29.53,North,-999,0.0,0.0,68,0.04,,,0.15,LWC V1.12 B30,2013-07-15 04:04:00,
2013-07-14 22:09:00,73.0,62.6,29.53,North,-999,0.0,0.0,70,0.17,,,0.15,LWC V1.12 B30,2013-07-15 04:09:00,
2013-07-14 22:14:00,72.9,63.3,29.53,North,-999,0.0,0.0,72,0.00,,,0.15,LWC V1.12 B30,2013-07-15 04:14:00,
2013-07-14 22:19:00,73.1,63.9,29.53,North,-999,0.0,0.0,73,0.00,,,0.19,LWC V1.12 B30,2013-07-15 04:19:00,
2013-07-14 22:24:00,73.1,63.1,29.53,North,-999,0.0,0.0,71,0.00,,,0.19,LWC V1.12 B30,2013-07-15 04:24:00,
2013-07-14 22:29:00,73.0,63.8,29.53,North,-999,0.0,0.0,73,0.00,,,0.19,LWC V1.12 B30,2013-07-15 04:29:00,
2013-07-14 22:34:00,73.0,63.8,29.53,North,-999,0.0,0.0,73,0.00,,,0.19,LWC V1.12 B30,2013-07-15 04:34:00,
2013-07-14 22:39:00,73.2,64.8,29.53,North,-999,0.0,0.0,75,0.00,,,0.19,LWC V1.12 B30,2013-07-15 04:39:00,
2013-07-14 22:44:00,73.2,65.9,29.53,North,-999,0.0,0.0,78,0.00,,,0.19,LWC V1.12 B30,2013-07-15 04:44:00,
2013-07-14 22:49:00,73.2,65.9,29.53,North,-999,0.0,0.0,78,0.00,,,0.19,LWC V1.12 B30,2013-07-15 04:49:00,
2013-07-14 22:54:00,73.2,65.9,29.53,North,-999,0.0,0.0,78,0.00,,,0.19,LWC V1.12 B30,2013-07-15 04:54:00,
2013-07-14 22:59:00,73.0,65.7,29.53,North,-999,0.0,0.0,78,0.00,,,0.19,LWC V1.12 B30,2013-07-15 04:59:00,
2013-07-14 23:04:00,73.0,66.1,29.53,North,-999,0.0,0.0,79,0.00,,,0.19,LWC V1.12 B30,2013-07-15 05:04:00,
2013-07-14 23:09:00,72.9,66.0,29.53,North,-999,0.0,0.0,79,0.00,,,0.19,LWC V1.12 B30,2013-07-15 05:09:00,
2013-07-14 23:14:00,72.9,65.3,29.53,North,-999,0.0,0.0,77,0.00,,,0.19,LWC V1.12 B30,2013-07-15 05:14:00,
2013-07-14 23:19:00,72.8,65.5,29.53,North,-999,0.0,0.0,78,0.00,,,0.19,LWC V1.12 B30,2013-07-15 05:19:00,
2013-07-14 23:24:00,72.8,65.5,29.53,North,-999,0.0,0.0,78,0.00,,,0.19,LWC V1.12 B30,2013-07-15 05:24:00,
2013-07-14 23:29:00,72.8,65.9,29.53,North,-999,0.0,0.0,79,0.00,,,0.19,LWC V1.12 B30,2013-07-15 05:29:00,
2013-07-14 23:34:00,72.9,65.3,29.53,North,-999,0.0,0.0,77,0.00,,,0.19,LWC V1.12 B30,2013-07-15 05:34:00,
2013-07-14 23:39:00,72.8,64.8,29.53,North,-999,0.0,0.0,76,0.00,,,0.19,LWC V1.12 B30,2013-07-15 05:39:00,
2013-07-14 23:44:00,72.7,64.7,29.53,North,-999,0.0,0.0,76,0.00,,,0.19,LWC V1.12 B30,2013-07-15 05:44:00,
2013-07-14 23:49:00,72.6,64.6,29.53,North,-999,0.0,0.0,76,0.00,,,0.19,LWC V1.12 B30,2013-07-15 05:49:00,
2013-07-14 23:54:00,72.4,64.0,29.53,North,-999,0.0,0.0,75,0.00,,,0.19,LWC V1.12 B30,2013-07-15 05:54:00,
2013-07-14 23:59:00,72.3,64.3,29.53,North,-999,0.0,0.0,76,0.00,,,0.19,LWC V1.12 B30,2013-07-15 05:59:00,